Погода в Удаловке

Россия / Республика Алтай     52°21′18″N   86°56′32″E
темп.,
°C
ветер,
м/с
пор.,
м/с
влажн.,
%
обл.,
%
осадки,
мм/ч
давл.,
гПа
погр.,
м
2 июля, сб
сб201:00+12ююв228568 0.0 100717
04:00+10ю22955 0.0 100731
07:00+14зюз1271100 0.0 1008104
10:00+19з283766 0.0 10081465
13:00+21зсз5835100 0.0 10072281
16:00+20зсз584094 0.0 10082129
19:00+19зсз35494 0.0 10081322
22:00+12ю11815 0.0 100910
3 июля, вс
вс301:00+10ююз11948 0.8 100911
04:00+9ююв119636 0.8 100910
07:00+11юв129435 1.3 100874
10:00+18ссз126018 0.3 1008511
13:00+22зсз47378 0.3 10072606
16:00+21з674690 0.1 10072278
19:00+17з13673 1.1 1008411
22:00+11ююз119431 0.9 100912
4 июля, пн
пн401:00+10ююв119519 1.0 100911
04:00+8юв11963 0.0 100910
07:00+11юв11955 0.0 100979
10:00+19вюв11571 0.0 1008558
13:00+24ссв12360 0.0 10061972
16:00+25с133117 0.0 10052551
19:00+23с234991 0.0 1004222
22:00+14с117699 0.0 100411
5 июля, вт
вт501:00+12юв11822 0.0 100411
04:00+10юв118998 0.0 100312
07:00+13вюв1275100 0.0 100283
10:00+21вюв125075 0.0 1001452
13:00+27в0136100 0.0 9991109
16:00+29ссз242898 0.0 9982366
19:00+16зюз2589100 0.6 1002188
22:00+14юв1196100 0.9 100318
6 июля, ср
ср601:00+13юв1195100 1.6 100314
04:00+12юв229759 1.0 100355
07:00+13ююв129799 1.2 100461
10:00+19юз1682100 0.4 1005433
13:00+22юз375281 0.9 10041692
16:00+19ююз137641 3.2 1006404
19:00+15вюв229795 7.3 100760
22:00+14вюв119897 2.6 100834